Temp_Advection
nan nan nan nan nan nan nan nan nan nan nan nan nan nan nan nan nan nan nan nan nan nan nan nan nan nan nan nan nan nan nan nan nan nan nan nan nan nan nan nan nan nan nan nan nan
nan -0 -0 -0 -0 -0 -0 -0 -0 -0 -0 -0 -0 -0 0 0 0 0 -0 -0 -0 -0 -0 0 0 -0 -0 -0 -0 -0 -0 -0 0 -0 -0 0 0 0 0 0 -0 -0 -0 0 nan
nan -0 -0 -0 -0 -0 -0 -0 -0 -0 -0 -0 -0 0 0 0 0 0 -0 -0 -0 0 -0 0 0 0 -0 -0 -0 -0 -0 -0 -0 -0 0 0 -0 0 0 -0 -1 -0 -0 0 nan
nan -0 -0 -0 -0 -0 -0 -0 -0 -0 -0 -0 -0 -0 0 -0 0 0 -0 -0 -0 -0 0 0 0 -0 -0 -0 -0 0 -0 -0 0 0 0 0 0 0 -0 -0 -0 0 0 0 nan
nan -0 -0 -0 -0 -0 -0 -0 -0 -0 -0 -0 -0 -0 0 -0 0 -0 -0 -0 -0 -0 0 0 0 -0 -0 -0 -0 -0 -0 -0 0 0 -0 0 0 -0 -1 -0 0 0 0 0 nan
nan -0 -0 -0 -0 -0 -0 -0 -0 -0 -0 -0 -0 -0 0 0 -0 -0 -0 -0 -0 0 0 0 0 -0 -0 -0 -0 -0 0 -0 -0 -0 -0 0 -0 -0 -0 -0 0 -0 0 0 nan
nan -0 -0 -0 -0 -0 -0 -0 -0 -0 -0 -0 -0 -0 -0 0 -0 -0 0 -0 -0 0 0 0 0 -0 -0 -0 0 0 -0 0 -0 -0 -0 0 0 -0 -1 -0 -0 -0 0 0 nan
nan -0 -0 -0 -0 -0 -0 -0 -0 -0 -0 -0 -0 -0 0 0 -0 -0 -0 -0 -0 0 -0 0 0 -0 -0 -0 -0 -0 -0 -0 -0 -0 -0 -0 -0 -0 -0 0 -0 0 0 -0 nan
nan -0 -0 -0 -0 -0 -0 -0 -0 -0 -0 -0 -0 -0 0 0 0 0 -0 0 0 0 0 0 0 -0 -0 -0 -0 0 -0 0 0 -0 -0 0 -0 -0 -0 0 -0 -0 -0 -0 nan
nan -0 -0 -0 -0 -0 -0 -0 -0 0 0 0 0 -0 0 0 0 0 -0 0 0 0 0 0 -0 -0 -0 0 -0 -0 0 0 0 0 0 0 0 -1 -1 0 -0 -0 0 -0 nan
nan -0 -0 -0 -0 -0 -0 -0 -0 0 0 0 0 0 -0 0 -0 -0 0 0 0 0 0 -0 -0 -0 -0 -0 -0 0 0 0 0 -0 0 0 -0 -1 -1 0 -1 -1 -0 -1 nan
nan -0 -0 -0 -0 -0 -0 -0 -0 -0 -1 -0 0 1 0 -0 -0 -0 0 0 0 0 0 -0 -0 -0 -0 -0 0 0 0 0 0 -0 0 -0 -1 -0 0 -0 -1 -1 -1 -0 nan
nan -0 -0 -0 -0 -0 0 -0 -0 -0 -0 -0 0 -0 0 0 0 -0 0 0 0 -0 0 0 -0 -0 0 -0 0 -0 0 0 0 0 -0 -0 -1 -0 0 -0 -0 -0 -0 -0 nan
nan -0 -0 -0 -0 0 0 -0 -0 -0 -0 -1 0 0 0 0 0 0 0 0 -0 0 -0 -0 0 -0 0 -0 0 0 0 0 0 -0 0 0 -0 -0 0 1 -1 -2 -0 0 nan
nan -0 -0 -0 0 0 0 -0 -0 -0 0 -0 0 0 0 0 0 0 0 0 0 -0 -0 0 0 0 0 0 0 0 -0 -0 -0 -0 -0 0 0 -1 -0 -0 -0 -0 -1 -0 nan
nan -0 -0 -0 -0 -0 0 -0 -0 -1 -1 -0 0 0 0 0 0 0 0 0 0 0 -0 0 -0 0 0 -0 -0 0 -0 -0 -0 0 -0 -0 -0 -0 -0 -0 -0 -0 -0 0 nan
nan -0 -0 -0 0 0 0 0 -1 -0 -0 -0 0 -0 -0 0 0 0 0 0 0 0 0 0 0 0 0 -0 -0 0 -0 0 0 0 -0 -0 0 -1 -0 -0 -0 -0 -0 0 nan
nan -0 -0 0 0 0 0 -0 -0 -0 -0 -0 -0 -0 -0 -0 -0 -0 0 0 -0 -0 -0 0 -0 0 0 0 -0 0 0 -0 -0 -0 0 0 -1 -0 -0 -1 -1 -0 -0 -0 nan
nan 0 -0 0 0 0 0 0 -0 -0 -0 0 0 -0 0 -0 0 -0 0 -0 -0 0 -1 -0 -0 -0 0 0 -0 -0 0 -0 -0 -0 0 -1 -0 -0 0 -0 -0 -1 -1 -1 nan
nan 0 -0 0 0 0 0 -0 -0 -1 -0 0 0 0 0 0 0 0 -0 -0 0 -1 -0 -0 0 -0 0 0 -0 0 -0 -0 -0 -0 -0 -0 -0 -0 -0 0 0 -0 -1 -1 nan
nan 0 0 0 0 -0 -0 -0 -0 -0 -0 0 0 0 0 0 0 -0 -0 0 -0 -0 0 0 0 0 0 0 0 0 -0 -0 -0 -0 -0 -1 0 0 -0 -0 0 -0 -1 -0 nan
nan 0 0 0 -0 -0 -0 -0 -0 0 0 0 0 0 -0 0 -0 -0 -0 -0 -0 -0 0 0 -0 0 -0 -0 0 -0 -0 -0 -0 0 0 0 -2 0 0 0 0 -1 -1 0 nan
nan 0 0 0 0 0 0 0 0 1 1 1 1 0 0 0 0 -0 0 -0 0 0 0 0 0 0 0 0 -0 0 0 0 -0 0 -1 -0 0 0 0 -0 -0 -1 -1 -0 nan
nan 0 0 0 -0 -0 0 0 0 -1 -0 -0 -0 -0 0 0 0 0 0 -0 -0 -0 -0 -0 0 -0 -1 -0 -0 0 -0 -0 -0 -0 -0 -1 -1 0 1 -0 -1 -2 -2 -0 nan
nan 0 0 0 -0 0 0 0 0 -0 -0 0 0 -0 0 -0 -0 1 -0 -0 -0 -0 -0 -0 -1 -0 -0 0 0 0 -0 -0 0 -0 -0 -1 -0 0 1 -0 -1 -1 -2 -1 nan
nan 0 -0 -0 0 0 0 0 -0 -0 0 0 -0 -0 0 -0 -0 -0 -0 -0 -0 -0 -0 -0 -0 -0 -1 -0 -0 -0 -0 -0 -0 -1 0 1 -1 -2 0 0 -0 -1 -1 -1 nan
nan nan nan nan nan nan nan nan nan nan nan nan nan nan nan nan nan nan nan nan nan nan nan nan nan nan nan nan nan nan nan nan nan nan nan nan nan nan nan nan nan nan nan nan nan
Wind_Speed
3 4 6 7 9 10 11 11 12 13 12 11 11 9 7 4 1 1 3 5 5 5 4 1 1 1 1 0 2 1 4 3 5 7 4 6 4 5 3 4 8 8 5 4 12
3 4 5 6 8 10 11 12 12 12 12 11 12 11 8 5 2 3 6 6 5 4 3 2 2 1 1 1 2 3 3 6 4 4 2 5 4 5 3 4 6 8 9 8 13
4 4 5 6 7 8 10 11 11 12 13 12 12 11 9 6 2 1 7 6 5 4 4 3 2 1 1 1 2 1 2 3 2 3 4 4 1 3 4 5 11 13 13 13 17
6 6 5 6 7 8 9 10 11 12 13 13 12 12 10 6 1 2 7 6 5 3 2 3 2 1 2 1 2 1 1 1 4 3 2 3 1 3 10 7 4 10 9 13 17
8 8 8 8 8 9 9 10 11 12 12 12 12 11 9 4 3 5 6 4 3 2 2 3 3 2 2 1 2 2 0 2 2 2 0 2 4 6 15 14 12 9 12 13 15
9 9 10 9 10 10 11 11 11 11 11 11 11 10 6 2 4 5 5 3 2 1 2 3 2 3 4 2 3 1 2 1 1 1 2 2 3 2 3 6 15 14 13 14 15
11 11 12 12 12 12 12 13 13 12 10 10 9 9 8 5 4 4 4 2 2 1 2 3 3 2 4 3 2 3 1 2 1 1 2 4 6 8 13 7 13 17 15 14 15
11 11 11 12 13 13 13 14 13 12 10 9 9 8 4 5 3 0 3 1 3 3 4 5 5 4 2 7 4 3 4 3 2 2 1 2 8 4 3 6 7 15 16 16 15
12 11 10 11 12 13 12 13 14 13 9 8 7 5 4 5 6 2 2 2 3 4 4 5 5 3 3 4 4 6 2 2 5 2 2 2 7 5 2 7 12 14 17 18 17
12 13 11 11 11 11 11 12 12 11 9 9 8 5 5 3 6 5 4 4 4 5 5 3 3 3 3 3 4 5 3 4 5 3 3 4 13 13 27 19 24 25 23 24 23
12 11 11 11 10 9 9 7 5 4 4 5 4 5 4 6 10 6 4 5 6 4 4 1 3 7 10 7 3 3 3 5 3 2 2 6 9 16 20 19 27 31 29 32 32
12 11 10 10 8 7 6 2 2 3 8 11 14 15 14 13 7 6 5 6 5 5 5 3 7 7 4 5 5 4 4 5 3 2 1 5 17 14 10 11 20 28 30 36 34
11 10 9 8 7 5 1 2 2 5 2 5 5 5 4 5 4 3 5 3 1 4 6 7 2 6 5 4 5 4 5 3 4 3 1 5 9 6 3 8 15 18 19 21 32
11 9 8 6 5 5 4 1 2 3 5 6 3 3 3 4 1 4 5 2 1 6 5 5 0 5 3 4 6 4 4 4 3 3 4 3 5 7 7 11 7 25 18 19 22
12 9 7 6 4 4 3 1 2 2 3 3 3 5 6 5 4 4 5 4 2 2 5 5 4 3 3 4 7 3 4 4 3 4 4 1 3 9 3 9 14 9 21 21 21
14 12 9 9 9 7 4 2 1 6 6 3 2 3 4 5 4 5 4 4 4 3 1 4 2 2 1 4 3 8 6 5 4 3 1 5 7 5 5 7 7 5 12 19 22
16 14 11 11 9 9 7 5 4 4 3 2 3 2 2 3 2 3 4 5 6 5 5 1 5 4 5 5 6 3 5 3 4 2 6 1 2 8 8 12 7 8 8 10 19
18 16 13 12 12 11 11 3 5 4 6 2 3 2 3 5 2 4 3 2 4 4 3 6 5 8 6 7 8 7 7 5 7 3 4 3 7 7 9 15 21 24 20 15 17
18 18 17 14 17 15 10 5 8 7 4 6 3 3 3 2 3 3 6 4 8 11 9 6 6 1 2 3 2 5 4 2 2 2 1 6 7 7 11 13 12 12 11 17 18
12 13 21 15 17 18 6 11 6 6 3 3 8 7 6 4 6 6 7 4 4 12 1 3 3 1 1 2 2 4 5 3 1 3 7 4 5 6 6 10 9 6 17 16 16
8 5 7 20 18 14 12 8 6 9 9 5 5 3 6 5 7 5 5 3 5 2 6 5 4 2 3 8 11 3 3 1 2 4 4 9 7 7 9 6 6 9 15 17 17
8 2 6 17 13 5 11 5 9 9 18 6 1 5 6 7 5 6 8 5 7 8 8 6 4 5 11 1 2 3 7 9 5 6 4 2 18 5 4 2 4 11 12 15 15
4 3 6 18 6 8 3 10 2 6 7 6 9 7 4 5 3 7 6 4 4 2 4 4 4 3 4 4 3 5 4 5 1 1 19 4 15 4 3 6 6 12 17 15 15
6 1 4 4 1 1 2 1 6 6 5 3 3 1 3 5 8 5 6 4 5 7 5 2 4 6 14 3 3 4 6 7 10 9 11 21 23 20 10 7 13 22 24 22 21
3 2 1 2 1 2 2 1 3 1 3 8 3 3 1 4 8 11 5 6 7 11 6 3 12 9 19 13 5 6 11 8 13 16 13 29 18 22 10 6 9 14 20 19 19
4 3 2 3 3 2 3 2 2 2 3 2 2 2 3 2 3 2 3 2 2 6 5 5 5 4 19 9 7 15 15 8 13 14 18 22 30 17 19 17 24 27 25 20 15
5 5 3 5 3 1 1 3 5 2 1 1 3 2 1 3 2 4 5 7 5 2 1 2 2 2 3 2 2 10 9 14 4 3 10 11 9 16 15 18 22 26 27 27 26
Wind_Direction
315 335 346 348 351 353 355 355 355 359 359 359 357 355 350 346 7 22 317 317 305 319 322 232 194 187 119 46 25 75 64 179 203 151 232 163 150 176 196 179 192 197 209 189 185
288 315 329 337 341 344 347 348 348 349 351 352 351 350 350 341 285 275 342 329 315 302 313 232 194 171 2 52 355 79 114 220 191 187 194 158 165 179 190 206 222 216 215 205 192
270 292 311 322 329 334 336 339 339 340 341 344 345 344 340 332 315 266 328 323 310 288 282 254 200 149 69 44 13 108 190 177 138 141 124 139 255 214 197 234 222 216 214 199 192
268 277 284 298 308 317 322 329 331 331 334 336 339 340 335 328 293 305 328 325 312 303 242 207 181 98 74 1 24 337 43 165 159 156 140 165 246 267 229 232 258 213 205 200 200
259 270 279 285 294 304 311 318 324 324 327 330 333 338 331 327 269 313 328 329 309 297 210 190 174 133 90 82 3 55 106 34 127 153 302 276 258 254 265 262 239 220 210 209 212
270 275 280 285 293 299 306 311 316 317 320 320 321 328 321 316 290 317 333 341 352 245 200 181 171 140 106 91 93 29 75 36 330 5 322 297 262 317 248 308 221 227 227 222 226
271 282 290 296 299 301 305 311 313 313 312 308 309 311 302 273 280 327 343 8 53 94 163 161 132 133 131 108 91 101 353 320 355 348 351 342 281 239 271 281 219 222 223 229 234
268 277 286 295 301 303 308 310 310 307 306 301 299 298 268 241 239 347 358 19 80 94 117 133 133 113 89 124 45 58 53 16 316 356 352 55 276 295 307 228 234 225 231 235 242
267 271 280 290 297 302 308 309 309 302 296 294 293 276 251 224 209 193 344 197 142 123 124 135 138 105 104 86 21 11 211 215 310 50 303 149 277 258 248 238 243 237 234 235 245
264 275 279 280 286 296 305 309 303 294 285 283 267 276 237 230 207 241 273 193 162 147 128 165 119 85 53 95 218 196 194 223 234 230 189 223 256 266 266 257 255 252 243 241 243
256 264 274 284 293 305 307 322 304 283 283 240 249 269 285 266 282 275 225 186 170 163 156 82 100 206 209 192 165 144 177 214 254 85 298 257 273 277 279 255 251 249 239 236 237
251 261 267 276 286 305 326 348 25 315 303 271 259 253 260 273 288 271 219 202 170 180 127 47 231 217 126 155 152 170 182 235 277 115 168 343 291 269 268 254 251 251 247 239 233
247 258 269 281 281 264 255 78 2 344 274 287 257 254 232 230 223 252 212 241 148 150 184 169 228 125 140 153 161 207 190 192 215 319 125 319 294 322 303 257 272 261 263 254 236
237 244 255 277 275 237 193 307 351 360 56 269 200 215 182 179 231 194 192 176 2 218 160 240 215 157 168 186 140 232 183 123 127 79 232 18 275 292 270 289 256 262 251 255 238
235 232 242 232 221 236 222 281 340 47 16 254 185 167 164 183 133 181 174 167 179 168 104 254 170 187 194 218 170 211 85 87 62 73 20 329 108 275 256 285 269 249 235 234 220
231 240 243 241 225 222 219 244 131 47 249 326 168 197 159 188 183 134 161 147 139 129 97 245 325 187 236 40 16 150 76 62 71 97 321 208 180 255 249 229 289 294 256 228 213
237 246 245 234 222 205 186 162 44 157 281 221 230 170 268 176 191 187 167 181 161 124 218 229 200 179 152 79 17 54 77 325 332 1 233 110 149 247 264 259 233 275 321 257 223
237 243 241 232 205 188 172 74 192 220 240 293 118 103 223 163 203 156 117 234 274 67 115 166 303 171 186 187 179 184 166 170 228 224 282 26 234 246 246 285 262 265 268 258 230
235 240 240 226 201 189 181 206 198 194 197 170 116 156 243 240 179 148 195 217 211 178 186 163 276 49 90 135 136 193 187 184 27 131 15 214 278 286 263 277 257 254 270 257 241
223 223 235 223 203 198 213 219 216 203 200 143 188 171 202 204 168 180 194 213 236 201 354 216 275 46 111 103 41 173 173 83 9 265 260 239 255 231 251 255 264 260 255 264 248
194 193 218 207 195 205 222 226 202 223 215 182 210 210 201 193 192 205 210 251 216 130 175 156 165 255 123 200 179 147 218 259 149 162 218 297 260 210 219 218 256 273 277 267 258
163 206 192 182 197 215 220 199 228 213 224 203 242 198 197 194 211 225 212 252 193 157 164 218 166 204 211 273 209 210 204 172 192 230 229 146 266 167 167 126 229 278 297 294 276
170 223 219 201 218 214 214 212 228 205 194 208 214 199 192 195 245 204 190 21 91 111 160 178 230 299 309 10 9 218 212 215 33 71 241 211 265 9 22 340 316 297 302 293 284
166 198 219 235 24 347 194 112 170 20 70 10 335 322 196 228 228 254 208 45 49 54 4 290 229 214 246 186 105 197 206 209 217 244 265 246 280 265 274 306 293 300 296 286 279
167 192 230 174 119 105 80 72 98 39 62 27 61 35 63 253 251 254 345 342 56 11 27 33 256 244 265 269 304 265 258 233 218 239 236 272 259 277 304 323 341 348 339 314 295
164 171 124 82 83 75 28 69 75 81 49 32 67 63 53 68 19 91 27 35 21 3 30 1 288 328 275 286 299 279 284 276 262 268 261 262 272 284 296 308 311 307 303 291 290
185 152 127 141 136 118 70 67 77 36 29 14 113 96 89 67 349 278 235 235 235 295 274 270 288 19 260 104 338 283 263 235 254 347 306 274 343 7 347 320 299 287 276 263 270
Height
1540 1540 1539 1538 1537 1535 1533 1531 1530 1528 1526 1524 1523 1522 1520 1519 1518 1518 1518 1519 1517 1517 1517 1516 1517 1517 1518 1518 1519 1519 1529 1537 1530 1534 1524 1523 1525 1527 1528 1528 1529 1529 1529 1529 1530
1539 1539 1538 1537 1536 1535 1533 1531 1529 1527 1526 1524 1522 1521 1520 1519 1518 1518 1519 1517 1516 1516 1517 1516 1516 1517 1518 1519 1520 1520 1531 1526 1522 1522 1522 1522 1523 1525 1527 1527 1527 1527 1527 1528 1529
1537 1537 1537 1536 1535 1533 1532 1530 1528 1526 1525 1523 1521 1520 1519 1518 1518 1518 1517 1516 1515 1515 1515 1516 1516 1517 1518 1519 1520 1521 1525 1521 1522 1522 1522 1523 1524 1524 1525 1526 1522 1523 1524 1525 1527
1536 1536 1535 1534 1533 1531 1530 1528 1527 1525 1523 1522 1520 1519 1518 1518 1521 1517 1516 1515 1515 1514 1514 1515 1516 1517 1519 1520 1520 1523 1522 1521 1521 1522 1522 1523 1523 1523 1522 1519 1519 1520 1521 1523 1524
1534 1534 1534 1532 1531 1529 1528 1527 1525 1524 1522 1520 1519 1518 1517 1517 1517 1516 1515 1514 1514 1514 1514 1515 1516 1517 1519 1520 1521 1521 1523 1523 1522 1522 1523 1523 1523 1522 1517 1518 1519 1519 1519 1521 1522
1533 1533 1532 1531 1530 1528 1527 1525 1524 1522 1521 1519 1517 1517 1517 1517 1515 1515 1514 1514 1513 1513 1513 1514 1515 1516 1518 1519 1521 1523 1523 1524 1523 1523 1523 1523 1522 1521 1514 1513 1516 1518 1519 1520 1521
1531 1532 1532 1531 1529 1528 1526 1524 1522 1521 1519 1518 1516 1515 1514 1515 1513 1513 1513 1513 1512 1513 1513 1514 1515 1516 1517 1519 1521 1521 1523 1522 1523 1523 1523 1523 1520 1517 1512 1513 1513 1515 1517 1518 1519
1528 1528 1529 1528 1527 1526 1525 1522 1520 1518 1517 1516 1515 1514 1512 1512 1512 1512 1512 1512 1512 1513 1513 1514 1515 1516 1517 1520 1521 1524 1526 1531 1523 1523 1523 1524 1525 1512 1511 1512 1512 1513 1514 1515 1516
1526 1526 1525 1525 1524 1524 1522 1520 1519 1517 1515 1514 1514 1514 1511 1510 1510 1510 1510 1511 1511 1512 1513 1515 1515 1517 1520 1523 1533 1531 1534 1531 1526 1523 1523 1523 1522 1511 1510 1510 1510 1511 1511 1511 1511
1523 1524 1523 1522 1521 1521 1520 1518 1516 1515 1513 1512 1512 1516 1511 1510 1509 1508 1509 1509 1510 1512 1513 1515 1515 1519 1523 1528 1544 1530 1530 1529 1528 1522 1521 1522 1517 1505 1504 1506 1504 1504 1505 1506 1506
1518 1520 1520 1520 1519 1518 1518 1516 1517 1515 1512 1510 1510 1511 1510 1511 1509 1508 1508 1508 1509 1510 1513 1515 1521 1524 1517 1518 1518 1521 1525 1525 1521 1522 1524 1521 1518 1503 1498 1498 1495 1492 1493 1495 1497
1514 1517 1517 1518 1517 1517 1516 1514 1514 1516 1511 1507 1505 1505 1506 1509 1509 1508 1510 1510 1507 1511 1511 1518 1521 1512 1512 1515 1517 1521 1523 1526 1523 1522 1524 1524 1510 1498 1492 1489 1487 1484 1483 1484 1490
1511 1513 1515 1515 1515 1515 1515 1513 1512 1512 1511 1504 1503 1503 1504 1506 1505 1507 1509 1510 1509 1511 1512 1516 1510 1509 1511 1516 1519 1521 1523 1522 1522 1523 1524 1525 1513 1496 1487 1484 1482 1481 1480 1480 1480
1508 1510 1512 1513 1517 1514 1513 1513 1511 1511 1524 1507 1502 1501 1503 1503 1505 1505 1506 1509 1510 1513 1515 1513 1510 1510 1512 1514 1517 1520 1518 1520 1524 1530 1535 1526 1532 1502 1488 1483 1477 1470 1473 1475 1477
1506 1507 1510 1511 1512 1514 1515 1513 1512 1512 1551 1501 1499 1499 1499 1503 1503 1503 1504 1506 1509 1510 1515 1514 1513 1514 1514 1511 1511 1517 1519 1525 1531 1543 1538 1531 1545 1506 1491 1484 1470 1460 1461 1464 1469
1502 1504 1507 1508 1509 1511 1512 1514 1514 1531 1538 1503 1498 1499 1499 1498 1499 1501 1503 1504 1506 1508 1510 1512 1513 1513 1514 1517 1515 1519 1523 1530 1539 1545 1555 1520 1525 1515 1490 1478 1467 1461 1460 1462 1466
1499 1500 1504 1505 1507 1509 1510 1513 1530 1540 1502 1496 1499 1500 1500 1500 1501 1501 1503 1504 1506 1517 1514 1508 1508 1508 1510 1519 1521 1521 1525 1545 1547 1556 1526 1528 1527 1496 1477 1469 1466 1462 1462 1464 1468
1495 1497 1499 1502 1504 1506 1509 1514 1525 1508 1505 1494 1494 1499 1501 1498 1499 1501 1504 1507 1503 1503 1519 1518 1518 1506 1502 1503 1511 1521 1520 1537 1541 1542 1526 1532 1520 1488 1466 1461 1461 1459 1458 1459 1463
1490 1493 1496 1499 1501 1505 1507 1511 1506 1502 1493 1494 1495 1498 1499 1497 1498 1501 1504 1503 1496 1496 1504 1515 1510 1502 1501 1502 1506 1519 1525 1514 1519 1530 1547 1505 1490 1473 1463 1460 1455 1455 1458 1458 1458
1485 1488 1492 1495 1498 1502 1503 1495 1495 1489 1490 1489 1494 1492 1498 1497 1501 1503 1503 1492 1490 1488 1489 1493 1502 1501 1503 1504 1506 1507 1509 1523 1529 1526 1516 1493 1490 1478 1459 1459 1455 1456 1454 1455 1456
1484 1487 1487 1491 1495 1496 1486 1487 1488 1487 1488 1491 1491 1490 1493 1495 1496 1501 1493 1488 1486 1485 1489 1493 1499 1508 1504 1502 1501 1510 1511 1511 1513 1518 1517 1487 1467 1459 1454 1452 1453 1452 1451 1452 1454
1480 1485 1484 1487 1490 1482 1479 1481 1483 1483 1486 1486 1489 1489 1490 1489 1493 1495 1490 1486 1480 1482 1490 1488 1495 1503 1496 1491 1491 1491 1491 1493 1501 1500 1511 1519 1451 1449 1449 1450 1451 1451 1450 1452 1453
1479 1482 1482 1482 1477 1474 1476 1477 1479 1480 1482 1483 1485 1484 1486 1487 1489 1486 1485 1482 1482 1483 1487 1487 1490 1499 1489 1495 1493 1492 1490 1486 1486 1489 1476 1503 1442 1455 1452 1455 1453 1453 1450 1449 1450
1478 1481 1481 1480 1479 1478 1475 1478 1477 1484 1483 1485 1484 1484 1482 1483 1483 1481 1482 1484 1484 1485 1487 1486 1486 1484 1472 1478 1481 1487 1485 1484 1484 1480 1474 1457 1458 1449 1455 1456 1453 1452 1451 1449 1448
1476 1478 1479 1478 1480 1479 1480 1482 1481 1485 1485 1486 1486 1486 1487 1485 1482 1479 1487 1487 1488 1490 1488 1489 1479 1480 1467 1473 1477 1478 1477 1479 1479 1473 1475 1443 1461 1443 1456 1457 1456 1455 1453 1450 1448
1476 1478 1479 1479 1480 1481 1481 1482 1484 1485 1487 1488 1488 1490 1490 1493 1494 1492 1496 1495 1493 1493 1493 1495 1480 1486 1470 1472 1478 1475 1472 1474 1473 1469 1464 1462 1452 1461 1455 1454 1452 1453 1452 1451 1447
1475 1476 1478 1480 1482 1483 1484 1484 1485 1487 1490 1490 1491 1491 1493 1495 1495 1495 1494 1495 1494 1496 1495 1495 1491 1489 1483 1481 1485 1478 1463 1461 1459 1461 1465 1457 1470 1467 1461 1457 1453 1448 1443 1442 1442